Flag for Portugal Weather past 2 weeks in Ponta Delgada, Azores, Portugal

Now
68 °F

Partly cloudy.


Feels Like: 68 °F
Forecast: 67 / 73 °F
Wind: 8 mph from East

Location: Ponta Delgada / Nordela Acores

Current Time: Oct 23, 2014 at 12:47:45 AM

Latest Report: Oct 23, 2014 at 12:00 AM


Visibility: N/A

Pressure: 30.07 "Hg

Humidity: 94%

Dew point: 66 °F

Location of Ponta DelgadaLocation

Historic Weather in Ponta Delgada — Graph

°F

Ponta Delgada temperature yesterday

Maximum temperature yesterday: 73 °F (at 8:30 PM)
Minimum temperature yesterday: 66 °F (at 3:00 AM)
Average temperature yesterday: 69 °F

Past Weeks' High & Low Weather Summary

 TemperatureHumidityPressure
High73 °F (Oct 21, 1:30 PM)100% (Oct 14, 1:30 PM)30.21 "Hg (Oct 14, 1:30 PM)
Low57 °F (Oct 18, 4:00 AM)49% (Oct 11, 2:30 PM)29.50 "Hg (Oct 17, 1:01 AM)
Average65 °F75%29.91 "Hg
* Reported Oct 7 11:00 PM — Oct 22 11:30 PM, Ponta Delgada, Weather by CustomWeather, © 2014

Note: Actual official high and low records may vary slightly from our data, if they occured in-between our weather recording intervals... More about our weather records

Advertising

Ponta Delgada weather history for previous 24 hours

 ConditionsComfort  
Time TempWeatherWind HumidityBarometerVisibility
11:30 PM
Oct 22
68 °FPartly cloudy.9 mph94%30.07 "HgN/A
11:00 PM68 °FPassing clouds.9 mph94%30.07 "HgN/A
10:30 PM68 °FPassing clouds.10 mph94%30.07 "HgN/A
10:00 PM68 °FPassing clouds.8 mph94%30.07 "HgN/A
9:30 PM68 °FPassing clouds.8 mph94%30.07 "HgN/A
9:00 PM68 °FPassing clouds.10 mph94%30.07 "HgN/A
8:30 PM73 °FPartly cloudy.12 mph94%30.07 "HgN/A
8:00 PM72 °FPassing clouds.9 mph88%30.07 "HgN/A
7:30 PM68 °FPartly sunny.10 mph94%30.04 "HgN/A
7:00 PM70 °FScattered clouds.13 mph94%30.04 "HgN/A
6:30 PM70 °FScattered clouds.12 mph88%30.04 "HgN/A
6:00 PM68 °FPassing clouds.12 mph94%30.04 "HgN/A
5:30 PM68 °FPassing clouds.13 mph94%30.04 "HgN/A
5:00 PM70 °FSprinkles. Scattered clouds.13 mph88%30.04 "Hg5 mi
4:30 PM70 °FScattered clouds.12 mph88%30.04 "HgN/A
4:00 PM70 °FPassing clouds.12 mph88%30.04 "HgN/A
3:30 PM68 °FPartly sunny.13 mph94%30.04 "HgN/A
3:00 PM68 °FPartly sunny.16 mph94%30.04 "HgN/A
2:30 PM70 °FBroken clouds.16 mph88%30.04 "HgN/A
2:00 PM70 °FBroken clouds.15 mph88%30.04 "HgN/A
1:30 PM70 °FSprinkles. Broken clouds.16 mph83%30.04 "Hg5 mi
1:00 PM70 °FScattered clouds.14 mph88%30.04 "HgN/A
12:30 PM70 °FScattered clouds.16 mph88%30.07 "HgN/A
12:00 PM68 °FSprinkles. Broken clouds.16 mph94%30.04 "HgN/A
11:30 AM68 °FBroken clouds.15 mph94%30.04 "HgN/A
11:00 AM68 °FSprinkles. Broken clouds.14 mph88%30.04 "HgN/A
10:30 AM68 °FBroken clouds.14 mph88%30.04 "HgN/A
10:00 AM68 °FSprinkles. Broken clouds.16 mph88%30.04 "Hg6 mi
9:30 AM68 °FBroken clouds.14 mph83%30.04 "HgN/A
9:00 AM66 °FBroken clouds.17 mph88%30.04 "HgN/A
8:30 AM68 °FScattered showers. Partly cloudy.16 mph88%30.01 "Hg6 mi
8:00 AM68 °FPartly cloudy.18 mph88%30.01 "Hg6 mi
7:53 AM68 °FRain showers. Partly cloudy.17 mph88%30.01 "Hg4 mi
7:30 AM68 °FPartly cloudy.20 mph88%30.01 "HgN/A
7:04 AM68 °FSprinkles. Passing clouds.15 mph88%30.01 "HgN/A
7:00 AM68 °FSprinkles. Passing clouds.15 mph88%30.01 "HgN/A
6:30 AM68 °FPassing clouds.16 mph88%30.01 "HgN/A
6:01 AM68 °FPassing clouds.14 mph88%30.01 "HgN/A
5:30 AM66 °FPassing clouds.14 mph88%30.01 "HgN/A
5:00 AM68 °FSprinkles. Passing clouds.17 mph88%30.01 "HgN/A
4:30 AM68 °FPassing clouds.13 mph88%30.01 "HgN/A
4:00 AM68 °FPartly cloudy.14 mph88%30.01 "HgN/A
3:30 AM68 °FPartly cloudy.16 mph88%30.01 "HgN/A
3:00 AM66 °FPassing clouds.13 mph88%30.01 "HgN/A
2:30 AM68 °FPartly cloudy.18 mph88%30.01 "HgN/A
2:00 AM70 °FPartly cloudy.16 mph83%30.01 "HgN/A
1:30 AM70 °FPartly cloudy.16 mph83%30.01 "HgN/A
1:00 AM70 °FPartly cloudy.15 mph83%30.01 "HgN/A
12:30 AM70 °FPartly cloudy.16 mph83%30.01 "HgN/A
12:00 AM70 °FPassing clouds.15 mph83%30.01 "HgN/A
Weather by CustomWeather, © 2014

See weather overviewHow to use our weather pages